Year,Month,Day,Hour,Minute,Value (Times are PST for temperature in C)
2009,06,22,07,32,13.80
2009,06,22,07,33,13.80
2009,06,22,07,34,13.80
2009,06,22,07,35,13.80
2009,06,22,07,36,13.80
2009,06,22,07,37,13.80
2009,06,22,07,38,13.90
2009,06,22,07,39,13.90
2009,06,22,07,40,14.00
2009,06,22,07,41,14.00
2009,06,22,07,42,14.00
2009,06,22,07,43,14.10
2009,06,22,07,44,14.10
2009,06,22,07,45,14.10
2009,06,22,07,46,14.10
2009,06,22,07,47,14.10
2009,06,22,07,48,14.10
2009,06,22,07,49,14.10
2009,06,22,07,50,14.10
2009,06,22,07,51,14.10
2009,06,22,07,52,14.10
2009,06,22,07,53,14.10
2009,06,22,07,54,14.10
2009,06,22,07,55,14.10
2009,06,22,07,56,14.10
2009,06,22,07,57,14.20
2009,06,22,07,58,14.20
2009,06,22,07,59,14.20
2009,06,22,08,00,14.20
2009,06,22,08,01,14.20
2009,06,22,08,02,14.20
2009,06,22,08,03,14.20
2009,06,22,08,04,14.20
2009,06,22,08,05,14.30
2009,06,22,08,06,14.30
2009,06,22,08,07,14.30
2009,06,22,08,08,14.30
2009,06,22,08,09,14.30
2009,06,22,08,10,14.30
2009,06,22,08,11,14.40
2009,06,22,08,12,14.40
2009,06,22,08,13,14.40
2009,06,22,08,14,14.50
2009,06,22,08,15,14.50
2009,06,22,08,16,14.60
2009,06,22,08,17,14.70
2009,06,22,08,18,14.80
2009,06,22,08,19,14.90
2009,06,22,08,20,15.00
2009,06,22,08,21,15.00
2009,06,22,08,22,15.00
2009,06,22,08,23,15.00
2009,06,22,08,24,15.00
2009,06,22,08,25,15.00
2009,06,22,08,26,15.00
2009,06,22,08,27,15.00
2009,06,22,08,28,15.00
2009,06,22,08,29,15.00
2009,06,22,08,30,15.00
2009,06,22,08,31,15.00
2009,06,22,08,32,15.00
2009,06,22,08,33,15.00
2009,06,22,08,34,15.00
2009,06,22,08,35,15.00
2009,06,22,08,36,15.00
2009,06,22,08,37,15.00
2009,06,22,08,38,15.00
2009,06,22,08,39,15.00
2009,06,22,08,40,15.10
2009,06,22,08,41,15.30
2009,06,22,08,42,15.50
2009,06,22,08,43,15.60
2009,06,22,08,44,15.70
2009,06,22,08,45,15.70
2009,06,22,08,46,15.70
2009,06,22,08,47,15.80
2009,06,22,08,48,15.60
2009,06,22,08,49,15.60
2009,06,22,08,50,15.60
2009,06,22,08,51,15.60
2009,06,22,08,52,15.60
2009,06,22,08,53,15.50
2009,06,22,08,54,15.50
2009,06,22,08,55,15.70
2009,06,22,08,56,15.70
2009,06,22,08,57,15.80
2009,06,22,08,58,15.90
2009,06,22,08,59,16.00
2009,06,22,09,00,16.00
2009,06,22,09,01,16.10
2009,06,22,09,02,16.10
2009,06,22,09,03,16.00
2009,06,22,09,04,16.10
2009,06,22,09,05,16.10
2009,06,22,09,06,16.10
2009,06,22,09,07,15.90
2009,06,22,09,08,15.80
2009,06,22,09,09,15.70
2009,06,22,09,10,15.70
2009,06,22,09,11,15.60
2009,06,22,09,12,15.60
2009,06,22,09,13,15.50
2009,06,22,09,14,15.50
2009,06,22,09,15,15.40
2009,06,22,09,16,15.50
2009,06,22,09,17,15.50
2009,06,22,09,18,15.60
2009,06,22,09,19,15.70
2009,06,22,09,20,15.80
2009,06,22,09,21,15.90
2009,06,22,09,22,16.10
2009,06,22,09,23,16.20
2009,06,22,09,24,16.30
2009,06,22,09,25,16.30
2009,06,22,09,26,16.30
2009,06,22,09,27,16.40
2009,06,22,09,28,16.40
2009,06,22,09,29,16.40
2009,06,22,09,30,16.40
2009,06,22,09,31,16.50
2009,06,22,09,32,16.60
2009,06,22,09,33,16.60
2009,06,22,09,34,16.60
2009,06,22,09,35,16.70
2009,06,22,09,36,16.60
2009,06,22,09,37,16.60
2009,06,22,09,38,16.70
2009,06,22,09,39,16.70
2009,06,22,09,40,16.70
2009,06,22,09,41,16.70
2009,06,22,09,42,16.60
2009,06,22,09,43,16.50
2009,06,22,09,44,16.50
2009,06,22,09,45,16.40
2009,06,22,09,46,16.30
2009,06,22,09,47,16.20
2009,06,22,09,48,16.10
2009,06,22,09,49,16.10
2009,06,22,09,50,16.10
2009,06,22,09,51,16.10
2009,06,22,09,52,16.20
2009,06,22,09,53,16.30
2009,06,22,09,54,16.30
2009,06,22,09,55,16.40
2009,06,22,09,56,16.50
2009,06,22,09,57,16.60
2009,06,22,09,58,16.70
2009,06,22,09,59,16.70
2009,06,22,10,00,16.70
2009,06,22,10,01,16.70
2009,06,22,10,02,16.70
2009,06,22,10,03,16.70
2009,06,22,10,04,16.70
2009,06,22,10,05,16.70
2009,06,22,10,06,16.70
2009,06,22,10,07,16.80
2009,06,22,10,08,16.80
2009,06,22,10,09,16.80
2009,06,22,10,10,16.80
2009,06,22,10,11,16.70
2009,06,22,10,12,16.60
2009,06,22,10,13,16.50
2009,06,22,10,14,16.40
2009,06,22,10,15,16.40
2009,06,22,10,16,16.40
2009,06,22,10,17,16.40
2009,06,22,10,18,16.40
2009,06,22,10,19,16.30
2009,06,22,10,20,16.30
2009,06,22,10,21,16.30
2009,06,22,10,22,16.30
2009,06,22,10,23,16.30
2009,06,22,10,24,16.30
2009,06,22,10,25,16.30
2009,06,22,10,26,16.30
2009,06,22,10,27,16.30
2009,06,22,10,28,16.30
2009,06,22,10,29,16.20
2009,06,22,10,30,16.20
2009,06,22,10,31,16.20
2009,06,22,10,32,16.20
2009,06,22,10,33,16.20
2009,06,22,10,34,16.30
2009,06,22,10,35,16.30
2009,06,22,10,36,16.30
2009,06,22,10,37,16.30
2009,06,22,10,38,16.30
2009,06,22,10,39,16.40
2009,06,22,10,40,16.40
2009,06,22,10,41,16.40
2009,06,22,10,42,16.40
2009,06,22,10,43,16.40
2009,06,22,10,44,16.40
2009,06,22,10,45,16.50
2009,06,22,10,46,16.50
2009,06,22,10,47,16.50
2009,06,22,10,48,16.50
2009,06,22,10,49,16.50
2009,06,22,10,50,16.50
2009,06,22,10,51,16.50
2009,06,22,10,52,16.50
2009,06,22,10,53,16.50
2009,06,22,10,54,16.50
2009,06,22,10,55,16.50
2009,06,22,10,56,16.50
2009,06,22,10,57,16.40
2009,06,22,10,58,16.40
2009,06,22,10,59,16.40
2009,06,22,11,00,16.40
2009,06,22,11,01,16.40
2009,06,22,11,02,16.40
2009,06,22,11,03,16.30
2009,06,22,11,04,16.30
2009,06,22,11,05,16.30
2009,06,22,11,06,16.30
2009,06,22,11,07,16.30
2009,06,22,11,08,16.40
2009,06,22,11,09,16.30
2009,06,22,11,10,16.30
2009,06,22,11,11,16.30
2009,06,22,11,12,16.30
2009,06,22,11,13,16.30
2009,06,22,11,14,16.30
2009,06,22,11,15,16.30
2009,06,22,11,16,16.30
2009,06,22,11,17,16.30
2009,06,22,11,18,16.30
2009,06,22,11,19,16.30
2009,06,22,11,20,16.30
2009,06,22,11,21,16.20
2009,06,22,11,22,16.10
2009,06,22,11,23,16.00
2009,06,22,11,24,16.00
2009,06,22,11,25,16.00
2009,06,22,11,26,16.00
2009,06,22,11,27,16.00
2009,06,22,11,28,15.90
2009,06,22,11,29,15.90
2009,06,22,11,30,15.90
2009,06,22,11,31,15.90
2009,06,22,11,32,15.90
2009,06,22,11,33,15.90
2009,06,22,11,34,15.80
2009,06,22,11,35,15.80
2009,06,22,11,36,15.80
2009,06,22,11,37,15.80
2009,06,22,11,38,15.80
2009,06,22,11,39,15.80
2009,06,22,11,40,15.80
2009,06,22,11,41,15.80
2009,06,22,11,42,15.90
2009,06,22,11,43,15.90
2009,06,22,11,44,15.90
2009,06,22,11,45,15.90
2009,06,22,11,46,15.90
2009,06,22,11,47,16.00
2009,06,22,11,48,16.00
2009,06,22,11,49,16.00
2009,06,22,11,50,16.10
2009,06,22,11,51,16.10
2009,06,22,11,52,16.20
2009,06,22,11,53,16.20
2009,06,22,11,54,16.20
2009,06,22,11,55,16.20
2009,06,22,11,56,16.20
2009,06,22,11,57,16.20
2009,06,22,11,58,16.20
2009,06,22,11,59,16.20
2009,06,22,12,00,16.20
2009,06,22,12,01,16.20
2009,06,22,12,02,16.10
2009,06,22,12,03,16.10
2009,06,22,12,04,16.00
2009,06,22,12,05,15.90
2009,06,22,12,06,15.90
2009,06,22,12,07,15.90
2009,06,22,12,08,15.90
2009,06,22,12,09,15.90
2009,06,22,12,10,16.00
2009,06,22,12,11,16.10
2009,06,22,12,12,16.10
2009,06,22,12,13,16.10
2009,06,22,12,14,16.20
2009,06,22,12,15,16.20
2009,06,22,12,16,16.20
2009,06,22,12,17,16.20
2009,06,22,12,18,16.30
2009,06,22,12,19,16.30
2009,06,22,12,20,16.30
2009,06,22,12,21,16.20
2009,06,22,12,22,16.20
2009,06,22,12,23,16.20
2009,06,22,12,24,16.20
2009,06,22,12,25,16.20
2009,06,22,12,26,16.20
2009,06,22,12,27,16.20
2009,06,22,12,28,16.20
2009,06,22,12,29,16.20
2009,06,22,12,30,16.20
2009,06,22,12,31,16.20
2009,06,22,12,32,16.20
2009,06,22,12,33,16.20
2009,06,22,12,34,16.20
2009,06,22,12,35,16.20
2009,06,22,12,36,16.20
2009,06,22,12,37,16.20
2009,06,22,12,38,16.30
2009,06,22,12,39,16.30
2009,06,22,12,40,16.30
2009,06,22,12,41,16.40
2009,06,22,12,42,16.40
2009,06,22,12,43,16.50
2009,06,22,12,44,16.50
2009,06,22,12,45,16.60
2009,06,22,12,46,16.60
2009,06,22,12,47,16.70
2009,06,22,12,48,16.80
2009,06,22,12,49,16.80
2009,06,22,12,50,16.80
2009,06,22,12,51,16.80
2009,06,22,12,52,16.80
2009,06,22,12,53,16.80
2009,06,22,12,54,16.90
2009,06,22,12,55,16.90
2009,06,22,12,56,16.90
2009,06,22,12,57,17.00
2009,06,22,12,58,17.00
2009,06,22,12,59,17.00
2009,06,22,13,00,17.00
2009,06,22,13,01,17.00
2009,06,22,13,02,17.00
2009,06,22,13,03,17.00
2009,06,22,13,04,17.10
2009,06,22,13,05,17.10
2009,06,22,13,06,17.20
2009,06,22,13,07,17.30
2009,06,22,13,08,17.30
2009,06,22,13,09,17.40
2009,06,22,13,10,17.40
2009,06,22,13,11,17.50
2009,06,22,13,12,17.50
2009,06,22,13,13,17.60
2009,06,22,13,14,17.60
2009,06,22,13,15,17.50
2009,06,22,13,16,17.50
2009,06,22,13,17,17.40
2009,06,22,13,18,17.50
2009,06,22,13,19,17.50
2009,06,22,13,20,17.60
2009,06,22,13,21,17.60
2009,06,22,13,22,17.70
2009,06,22,13,23,17.70
2009,06,22,13,24,17.80
2009,06,22,13,25,17.80
2009,06,22,13,26,17.90
2009,06,22,13,27,17.90
2009,06,22,13,28,17.80
2009,06,22,13,29,17.70
2009,06,22,13,30,17.60
2009,06,22,13,31,17.50
2009,06,22,13,32,17.30
2009,06,22,13,33,17.20
2009,06,22,13,34,17.20
2009,06,22,13,35,17.20
2009,06,22,13,36,17.20
2009,06,22,13,37,17.20
2009,06,22,13,38,17.30
2009,06,22,13,39,17.40
2009,06,22,13,40,17.60
2009,06,22,13,41,17.70
2009,06,22,13,42,17.90
2009,06,22,13,43,18.00
2009,06,22,13,44,18.10
2009,06,22,13,45,18.00
2009,06,22,13,46,18.00
2009,06,22,13,47,17.90
2009,06,22,13,48,17.90
2009,06,22,13,49,17.90
2009,06,22,13,50,17.90
2009,06,22,13,51,18.00
2009,06,22,13,52,18.00
2009,06,22,13,53,18.00
2009,06,22,13,54,18.10
2009,06,22,13,55,18.20
2009,06,22,13,56,18.20
2009,06,22,13,57,18.30
2009,06,22,13,58,18.20
2009,06,22,13,59,18.20
2009,06,22,14,00,18.20
2009,06,22,14,01,18.20
2009,06,22,14,02,18.20
2009,06,22,14,03,18.20
2009,06,22,14,04,18.30
2009,06,22,14,05,18.40
2009,06,22,14,06,18.30
2009,06,22,14,07,18.00
2009,06,22,14,08,17.80
2009,06,22,14,09,17.70
2009,06,22,14,10,17.70
2009,06,22,14,11,17.70
2009,06,22,14,12,17.70
2009,06,22,14,13,17.70
2009,06,22,14,14,17.70
2009,06,22,14,15,17.70
2009,06,22,14,16,17.70
2009,06,22,14,17,17.60
2009,06,22,14,18,17.60
2009,06,22,14,19,17.60
2009,06,22,14,20,17.60
2009,06,22,14,21,17.50
2009,06,22,14,22,17.50
2009,06,22,14,23,17.60
2009,06,22,14,24,17.60
2009,06,22,14,25,17.50
2009,06,22,14,26,17.30
2009,06,22,14,27,17.30
2009,06,22,14,28,17.30
2009,06,22,14,29,17.30
2009,06,22,14,30,17.40
2009,06,22,14,31,17.50
2009,06,22,14,32,17.60
2009,06,22,14,33,17.80
2009,06,22,14,34,18.00
2009,06,22,14,35,18.20
2009,06,22,14,36,18.40
2009,06,22,14,37,18.40
2009,06,22,14,38,18.40
2009,06,22,14,39,18.30
2009,06,22,14,40,18.30
2009,06,22,14,41,18.20
2009,06,22,14,42,18.20
2009,06,22,14,43,18.10
2009,06,22,14,44,18.00
2009,06,22,14,45,18.00
2009,06,22,14,46,18.10
2009,06,22,14,47,18.10
2009,06,22,14,48,18.00
2009,06,22,14,49,17.90
2009,06,22,14,50,17.90
2009,06,22,14,51,17.90
2009,06,22,14,52,18.00
2009,06,22,14,53,18.10
2009,06,22,14,54,18.10
2009,06,22,14,55,18.20
2009,06,22,14,56,18.20
2009,06,22,14,57,18.30
2009,06,22,14,58,18.40
2009,06,22,14,59,18.50
2009,06,22,15,00,18.40
2009,06,22,15,01,18.30
2009,06,22,15,02,18.10
2009,06,22,15,03,18.00
2009,06,22,15,04,17.90
2009,06,22,15,05,17.90
2009,06,22,15,06,17.80
2009,06,22,15,07,17.60
2009,06,22,15,08,17.60
2009,06,22,15,09,17.50
2009,06,22,15,10,17.50
2009,06,22,15,11,17.50
2009,06,22,15,12,17.40
2009,06,22,15,13,17.30
2009,06,22,15,14,17.30
2009,06,22,15,15,17.40
2009,06,22,15,16,17.50
2009,06,22,15,17,17.50
2009,06,22,15,18,17.60
2009,06,22,15,19,17.70
2009,06,22,15,20,17.80
2009,06,22,15,21,18.00
2009,06,22,15,22,18.00
2009,06,22,15,23,18.10
2009,06,22,15,24,18.20
2009,06,22,15,25,18.20
2009,06,22,15,26,18.30
2009,06,22,15,27,18.40
2009,06,22,15,28,18.50
2009,06,22,15,29,18.50
2009,06,22,15,30,18.50
2009,06,22,15,31,18.60
2009,06,22,15,32,18.60
2009,06,22,15,33,18.70
2009,06,22,15,34,18.70
2009,06,22,15,35,18.80
2009,06,22,15,36,18.80
2009,06,22,15,37,18.80
2009,06,22,15,38,18.80
2009,06,22,15,39,18.70
2009,06,22,15,40,18.70
2009,06,22,15,41,18.50
2009,06,22,15,42,18.40
2009,06,22,15,43,18.20
2009,06,22,15,44,18.10
2009,06,22,15,45,17.90
2009,06,22,15,46,17.90
2009,06,22,15,47,17.80
2009,06,22,15,48,17.80
2009,06,22,15,49,17.80
2009,06,22,15,50,17.80
2009,06,22,15,51,17.80
2009,06,22,15,52,17.80
2009,06,22,15,53,17.80
2009,06,22,15,54,17.80
2009,06,22,15,55,17.70
2009,06,22,15,56,17.60
2009,06,22,15,57,17.60
2009,06,22,15,58,17.70
2009,06,22,15,59,17.70
2009,06,22,16,00,17.80
2009,06,22,16,01,18.00
2009,06,22,16,02,18.00
2009,06,22,16,03,18.20
2009,06,22,16,04,18.30
2009,06,22,16,05,18.40
2009,06,22,16,06,18.50
2009,06,22,16,07,18.60
2009,06,22,16,08,18.70
2009,06,22,16,09,18.80
2009,06,22,16,10,18.90
2009,06,22,16,11,19.00
2009,06,22,16,12,19.10
2009,06,22,16,13,19.10
2009,06,22,16,14,19.10
2009,06,22,16,15,19.10
2009,06,22,16,16,19.10
2009,06,22,16,17,18.90
2009,06,22,16,18,18.80
2009,06,22,16,19,18.60
2009,06,22,16,20,18.60
2009,06,22,16,21,18.60
2009,06,22,16,22,18.60
2009,06,22,16,23,18.70
2009,06,22,16,24,18.80
2009,06,22,16,25,18.80
2009,06,22,16,26,18.90
2009,06,22,16,27,18.90
2009,06,22,16,28,18.90
2009,06,22,16,29,18.80
2009,06,22,16,30,18.80
2009,06,22,16,31,18.70
2009,06,22,16,32,18.60
2009,06,22,16,33,18.60
2009,06,22,16,34,18.60
2009,06,22,16,35,18.50
2009,06,22,16,36,18.50
2009,06,22,16,37,18.50
2009,06,22,16,38,18.60
2009,06,22,16,39,18.70
2009,06,22,16,40,18.80
2009,06,22,16,41,18.80
2009,06,22,16,42,18.80
2009,06,22,16,43,18.80
2009,06,22,16,44,18.80
2009,06,22,16,45,18.80
2009,06,22,16,46,18.80
2009,06,22,16,47,18.70
2009,06,22,16,48,18.60
2009,06,22,16,49,18.60
2009,06,22,16,50,18.60
2009,06,22,16,51,18.60
2009,06,22,16,52,18.50
2009,06,22,16,53,18.50
2009,06,22,16,54,18.60
2009,06,22,16,55,18.60
2009,06,22,16,56,18.50
2009,06,22,16,57,18.50
2009,06,22,16,58,18.40
2009,06,22,16,59,18.40
2009,06,22,17,00,18.40
2009,06,22,17,01,18.40
2009,06,22,17,02,18.50
2009,06,22,17,03,18.60
2009,06,22,17,04,18.60
2009,06,22,17,05,18.60
2009,06,22,17,06,18.60
2009,06,22,17,07,18.70
2009,06,22,17,08,18.80
2009,06,22,17,09,18.80
2009,06,22,17,10,18.80
2009,06,22,17,11,18.70
2009,06,22,17,12,18.70
2009,06,22,17,13,18.70
2009,06,22,17,14,18.60
2009,06,22,17,15,18.70
2009,06,22,17,16,18.70
2009,06,22,17,17,18.60
2009,06,22,17,18,18.60
2009,06,22,17,19,18.60
2009,06,22,17,20,18.60
2009,06,22,17,21,18.50
2009,06,22,17,22,18.40
2009,06,22,17,23,18.40
2009,06,22,17,24,18.40
2009,06,22,17,25,18.40
2009,06,22,17,26,18.50
2009,06,22,17,27,18.60
2009,06,22,17,28,18.50
2009,06,22,17,29,18.50
2009,06,22,17,30,18.50
2009,06,22,17,31,18.50
2009,06,22,17,32,18.50
2009,06,22,17,33,18.50
2009,06,22,17,34,18.50
2009,06,22,17,35,18.50
2009,06,22,17,36,18.50
2009,06,22,17,37,18.30
2009,06,22,17,38,18.20
2009,06,22,17,39,18.20
2009,06,22,17,40,18.20
2009,06,22,17,41,18.10
2009,06,22,17,42,18.10
2009,06,22,17,43,18.10
2009,06,22,17,44,18.10
2009,06,22,17,45,18.20
2009,06,22,17,46,18.20
2009,06,22,17,47,18.20
2009,06,22,17,48,18.20
2009,06,22,17,49,18.10
2009,06,22,17,50,18.20
2009,06,22,17,51,18.20
2009,06,22,17,52,18.30
2009,06,22,17,53,18.30
2009,06,22,17,54,18.30
2009,06,22,17,55,18.40
2009,06,22,17,56,18.40
2009,06,22,17,57,18.40
2009,06,22,17,58,18.40
2009,06,22,17,59,18.30
2009,06,22,18,00,18.30
2009,06,22,18,01,18.30
2009,06,22,18,02,18.30
2009,06,22,18,03,18.20
2009,06,22,18,04,18.10
2009,06,22,18,05,18.00
2009,06,22,18,06,18.00
2009,06,22,18,07,18.00
2009,06,22,18,08,18.00
2009,06,22,18,09,18.00
2009,06,22,18,10,17.90
2009,06,22,18,11,17.90
2009,06,22,18,12,17.90
2009,06,22,18,13,17.80
2009,06,22,18,14,17.90
2009,06,22,18,15,17.80
2009,06,22,18,16,17.80
2009,06,22,18,17,17.80
2009,06,22,18,18,17.90
2009,06,22,18,19,17.90
2009,06,22,18,20,17.90
2009,06,22,18,21,17.90
2009,06,22,18,22,17.90
2009,06,22,18,23,18.00
2009,06,22,18,24,17.90
2009,06,22,18,25,17.90
2009,06,22,18,26,17.80
2009,06,22,18,27,17.80
2009,06,22,18,28,17.80
2009,06,22,18,29,17.80
2009,06,22,18,30,17.90
2009,06,22,18,31,17.90
2009,06,22,18,32,18.00
2009,06,22,18,33,18.00
2009,06,22,18,34,18.00
2009,06,22,18,35,18.00
2009,06,22,18,36,18.00
2009,06,22,18,37,18.10
2009,06,22,18,38,18.10
2009,06,22,18,39,18.10
2009,06,22,18,40,18.10
2009,06,22,18,41,18.20
2009,06,22,18,42,18.20
2009,06,22,18,43,18.20
2009,06,22,18,44,18.10
2009,06,22,18,45,18.10
2009,06,22,18,46,18.00
2009,06,22,18,47,17.90
2009,06,22,18,48,17.80
2009,06,22,18,49,17.70
2009,06,22,18,50,17.70
2009,06,22,18,51,17.70
2009,06,22,18,52,17.60
2009,06,22,18,53,17.60
2009,06,22,18,54,17.60
2009,06,22,18,55,17.60
2009,06,22,18,56,17.60
2009,06,22,18,57,17.60
2009,06,22,18,58,17.60
2009,06,22,18,59,17.60
2009,06,22,19,00,17.60
2009,06,22,19,01,17.60
2009,06,22,19,02,17.60
2009,06,22,19,03,17.60
2009,06,22,19,04,17.50
2009,06,22,19,05,17.50
2009,06,22,19,06,17.50
2009,06,22,19,07,17.40
2009,06,22,19,08,17.40
2009,06,22,19,09,17.40
2009,06,22,19,10,17.30
2009,06,22,19,11,17.30
2009,06,22,19,12,17.30
2009,06,22,19,13,17.30
2009,06,22,19,14,17.30
2009,06,22,19,15,17.30
2009,06,22,19,16,17.30
2009,06,22,19,17,17.30
2009,06,22,19,18,17.30
2009,06,22,19,19,17.30
2009,06,22,19,20,17.30
2009,06,22,19,21,17.30
2009,06,22,19,22,17.30
2009,06,22,19,23,17.30
